map of KVD home
Great Circle Mapper logo
KVD - Airport
Location
City:  Ganja, Azerbaijan
Near (Alt.):Gyandzha
Name:Ganja International Airport
ICAO / IATA:UBBG / KVD

Details
Type:Airport (Aerodrome, Airfield)
Use:Public/Civil, International (customs port of entry)
Latitude:4044'16"N (40.737678)
Longitude:4619'03"E (46.317581)
Elevation:1083 ft (330 m)
Runways:1
Longest:8217 × 144 ft (2505 × 44 m), paved

Time
Time Zone:UTC+4 (DST+5)
Local Time:

Weather
METAR:UBBG 231400Z 08003KT 060V140 9999 SCT100 24/15 Q1010 R30/CLRD70 NOSIG
TAF:UBBG 222310Z 2300/2324 VRB04KT 9999 SCT040 BKN080 TX23/2312Z TN16/2302Z
TEMPO 2300/2305 -SHRA SCT030CB OVC050

Related Locations
Nearby:
Farthest:GMR: 11211 mi / 18043 km
Mangareva [Totegegie], Gambier Islands, PF

Find:

   beyond  
but within

Other Information
Maps:
NOTAMs:
Links:
Sources:

  
flag of Azerbaijan   

Sectional Chart

Flight Planning
at skyvector.com

Satellite Image

Google Maps Satellite View

 

Copyright © 2004-2014 Karl L. Swartz. All rights reserved.
The Great Circle Mapper name and logo are trademarks of the Great Circle Mapper.
All other trademarks mentioned herein belong to their respective owners.
Please see credits for attibutions and further copyright information.

  Follow gcmap on Facebook Follow gcmap on Twitter

hCard Microformat

Geo Microformat